This is the latest recevied weather packets stored in our database for station/object EA1CUE-WX. If no packets are shown the sender has not sent any weather packets the latest 10 day(s).
| Time | Temp. | Humidity | Pressure | Rain* | Wind** | Luminosity | Snow |
|---|---|---|---|---|---|---|---|
| 1788085431 | 20° C | 37% | 1019.8 hPa | 0 mm | - | - | - |
| 1788085130 | 20° C | 32% | 1019.8 hPa | 0 mm | - | - | - |
| 1788084831 | 20° C | 32% | 1019.7 hPa | 0 mm | - | - | - |
| 1788084530 | 20° C | 24% | 1019.8 hPa | 0 mm | - | - | - |
| 1788084231 | 20° C | 22% | 1019.6 hPa | 0 mm | - | - | - |
| 1788083930 | 19.44° C | 20% | 1019.6 hPa | 0 mm | - | - | - |
| 1788083631 | 19.44° C | 22% | 1019.6 hPa | 0 mm | - | - | - |
| 1788083331 | 20° C | 12% | 1019.5 hPa | 0 mm | - | - | - |
| 1788083031 | 19.44° C | 10% | 1019.6 hPa | 0 mm | - | - | - |
| 1788082730 | 19.44° C | 4% | 1019.6 hPa | 0 mm | - | - | - |
| 1788082431 | 19.44° C | 1% | 1019.5 hPa | 0 mm | - | - | - |
| 1788082130 | 19.44° C | 1% | 1019.5 hPa | 0 mm | - | - | - |
| 1788081831 | 19.44° C | 1% | 1019.6 hPa | 0 mm | - | - | - |
| 1788081531 | 18.89° C | 1% | 1019.6 hPa | 0 mm | - | - | - |
| 1788081230 | 18.33° C | 1% | 1019.6 hPa | 0 mm | - | - | - |
| 1788080931 | 18.33° C | 1% | 1019.6 hPa | 0 mm | - | - | - |
| 1788080630 | 18.33° C | 1% | 1019.6 hPa | 0 mm | - | - | - |
| 1788080331 | 17.78° C | 1% | 1019.6 hPa | 0 mm | - | - | - |
| 1788080031 | 17.78° C | 1% | 1019.5 hPa | 0 mm | - | - | - |
| 1788079731 | 17.78° C | 1% | 1019.5 hPa | 0 mm | - | - | - |
| 1788079430 | 17.78° C | 1% | 1019.4 hPa | 0 mm | - | - | - |
| 1788079130 | 17.78° C | 1% | 1019.5 hPa | 0 mm | - | - | - |
| 1788078831 | 17.22° C | 1% | 1019.4 hPa | 0 mm | - | - | - |
| 1788078530 | 16.67° C | 1% | 1019.3 hPa | 0 mm | - | - | - |
| 1788078230 | 16.11° C | 1% | 1019.3 hPa | 0 mm | - | - | - |
* Rain latest hour (hover to see other rain measurements)
** Current wind speed in m/s (hover to see current wind gust speed)